Regional Weather Roundup
Issued by NWS

Home | Current Version | Previous Version | Text Only | Print | Product List | Glossary Off
Versions: 1 2 3 4 5 6 7 8 9 10 11 12 13 14 15 16 17 18 19 20 21 22 23 24 25 26 27 28 29 30 31 32 33 34 35 36 37 38 39 40 41 42 43 44 45 46 47 48 49 50

000
ASUS43 KBIS 210301
RWRND

NORTH DAKOTA REGIONAL WEATHER ROUNDUP
NATIONAL WEATHER SERVICE BISMARCK ND
1000 PM CDT MON APR 20 2015

NOTE: "FAIR" INDICATES FEW OR NO CLOUDS BELOW 12,000 FEET WITH NO
SIGNIFICANT WEATHER AND/OR OBSTRUCTIONS TO VISIBILITY.


NDZ001>003-009>011-017-210400-
NORTHWEST NORTH DAKOTA

CITY           SKY/WX    TMP DP  RH WIND       PRES   REMARKS
WILLISTON      CLEAR     39  14  36 CALM      29.81S
MINOT          PTCLDY    40  14  34 NW12      29.77R
MINOT AFB      MOCLDY    41  15  35 N12       29.77R
$$

NDZ018>021-031>035-040>046-210400-
SOUTHWEST NORTH DAKOTA

CITY           SKY/WX    TMP DP  RH WIND       PRES   REMARKS
BISMARCK       CLEAR     43   8  23 NW12      29.78R
DICKINSON      CLEAR     35  16  45 W3        29.80S
GARRISON         N/A     35  14  42 NW12      29.78R
HETTINGER ARPT CLEAR     28  15  58 NW3       29.84S
$$

NDZ004>008-012>016-024-026-027-054-210400-
NORTHEAST NORTH DAKOTA

CITY           SKY/WX    TMP DP  RH WIND       PRES   REMARKS
GRAND FORKS    CLOUDY    35  28  75 N21G30    29.65R
GRND FRKS AFB  CLOUDY    36  27  69 N22G31    29.65S
DEVILS LAKE    CLEAR     36  25  64 N26       29.71R
$$

NDZ022-023-025-028>030-036>039-047>053-210400-
SOUTHEAST NORTH DAKOTA

CITY           SKY/WX    TMP DP  RH WIND       PRES   REMARKS
FARGO          CLOUDY    37  31  78 N13       29.65R
JAMESTOWN      PTCLDY    37  25  61 N9        29.68S
$$




USA.gov is the U.S. government's official web portal to all federal, state and local government web resources and services.